Wind_Speed
16 18 20 21 23 24 26 28 29 30 31 32 33 34 35 35 37 39 41 43 44 44 44 44 44 44 44 45 45 45 43 42 42 41 40 40 40 39 39 38 38 37 36 35
15 18 18 20 21 23 25 26 28 29 30 31 31 33 34 34 35 37 39 40 41 42 43 44 44 45 45 45 46 45 45 44 43 42 41 41 41 41 40 40 39 38 38 37
15 16 18 19 21 22 22 25 27 28 29 30 31 32 33 33 35 35 37 38 39 39 41 43 45 46 46 47 47 46 46 46 44 43 43 42 42 42 42 42 40 40 39 39
14 15 17 19 20 21 20 22 25 27 29 29 31 33 33 33 34 35 37 38 39 39 40 42 43 45 47 48 48 48 47 47 46 45 44 44 43 43 42 42 41 41 41 40
13 14 16 18 20 20 19 21 23 26 27 29 30 33 34 34 34 34 36 37 39 39 40 42 43 44 46 48 49 49 48 48 47 46 45 45 45 44 43 43 43 42 42 41
12 13 14 16 18 19 19 20 22 25 27 29 29 33 33 34 33 34 35 35 36 38 39 41 42 43 45 47 48 49 49 49 48 47 47 46 46 45 45 45 45 44 43 42
12 13 13 14 16 17 17 19 21 23 25 28 28 32 33 32 33 33 34 34 35 36 38 39 41 42 44 46 47 48 48 48 49 48 48 47 47 46 46 46 45 45 43 42
11 11 12 13 15 15 16 18 20 23 24 26 27 31 32 32 33 33 33 33 34 36 37 38 40 41 42 44 46 47 48 48 48 49 49 48 48 47 46 46 46 45 45 44
12 12 12 12 13 15 16 17 19 22 24 25 27 29 31 31 32 33 33 33 33 35 36 37 39 40 42 44 45 46 47 48 48 48 49 49 49 48 48 48 47 46 46 45
13 12 12 12 13 15 16 17 18 20 22 24 26 27 28 28 29 31 32 33 33 34 35 36 37 40 42 45 46 46 47 48 49 49 50 49 49 49 48 48 47 47 46 45
13 12 11 13 14 14 15 16 18 19 21 23 25 26 26 27 27 29 30 31 32 33 34 36 37 39 41 44 46 46 47 47 48 49 49 49 49 49 49 47 47 47 47 46
14 14 13 13 14 15 16 17 17 19 19 21 24 23 24 26 26 27 29 31 31 32 34 36 37 39 40 43 45 46 47 48 49 49 49 49 50 50 50 49 47 47 47 47
15 16 16 15 16 16 17 18 19 20 21 21 22 22 24 25 26 27 28 29 31 32 33 36 38 38 39 41 43 44 45 47 47 48 49 49 50 49 50 50 49 48 48 47
15 16 16 17 17 18 18 18 19 20 21 21 21 20 22 24 26 27 28 29 30 31 32 34 37 39 39 39 41 42 43 45 47 48 49 49 49 49 49 50 50 50 49 49
16 16 16 17 18 18 18 19 19 20 20 21 20 19 20 23 25 27 28 28 29 30 31 33 36 38 38 38 39 40 42 43 44 45 47 48 49 49 50 50 50 50 50 51
17 17 17 17 18 19 19 19 20 21 21 22 22 21 20 22 24 25 27 27 28 30 31 32 34 36 36 36 37 38 39 41 42 44 45 48 49 50 50 50 50 50 50 50
18 18 19 19 20 20 20 18 19 20 20 21 22 22 22 22 23 25 27 27 27 29 31 32 33 34 35 36 35 37 38 40 42 43 43 45 48 50 51 50 51 51 51 52
19 20 21 20 20 20 20 19 18 19 20 21 21 21 21 20 20 22 24 26 26 27 28 30 31 33 34 35 35 35 37 39 40 41 42 44 45 47 48 48 49 50 49 49
19 20 21 20 21 21 20 20 20 20 21 21 22 21 21 20 20 20 22 23 25 26 27 28 30 32 33 34 35 35 36 37 38 40 40 42 43 45 47 47 48 48 48 48
20 20 21 21 21 21 20 20 21 22 22 22 23 23 22 21 21 21 22 23 24 25 26 28 30 31 32 33 34 34 35 36 37 38 39 40 42 43 45 46 47 48 49 49
21 21 22 22 21 21 21 21 22 23 23 23 23 24 24 23 23 23 23 24 25 26 26 27 29 30 31 33 34 34 35 35 36 37 38 39 41 42 43 44 45 47 48 48
22 23 23 23 22 22 22 23 24 24 25 25 25 24 24 24 24 24 25 25 26 26 26 27 28 29 31 32 33 34 35 35 35 36 37 39 40 40 42 43 44 45 46 46
23 24 24 23 23 23 24 25 25 25 25 25 25 25 24 24 24 25 26 26 26 26 26 27 28 29 30 31 31 32 33 34 35 35 36 37 39 40 41 42 42 43 44 44
25 24 24 24 25 25 26 26 26 25 25 25 25 24 24 24 24 24 25 26 26 26 27 27 27 27 29 30 30 31 32 33 34 35 36 36 37 38 39 41 41 42 43 42
25 25 25 25 26 27 27 27 26 26 25 24 24 24 24 24 24 24 25 26 26 26 27 27 27 27 28 30 31 31 32 33 34 34 35 35 35 36 36 38 39 39 39 40
26 26 26 26 27 27 27 27 27 26 25 25 24 24 24 24 25 25 26 26 26 27 27 27 27 28 29 30 31 32 32 33 34 34 34 35 34 35 35 36 36 36 37 37
Wind_Direction
254 254 252 249 244 243 243 242 240 238 238 240 240 240 238 239 239 238 238 238 238 237 236 236 234 233 232 232 232 233 233 234 236 238 241 242 243 244 246 248 250 251 252 253
258 262 260 253 247 245 245 243 241 240 240 242 242 241 239 239 240 239 239 238 238 238 236 236 234 233 233 232 232 233 234 235 237 239 241 243 244 244 246 248 250 251 252 253
266 268 263 256 250 247 247 245 244 244 241 242 244 243 240 240 240 239 238 238 238 238 237 237 235 233 234 233 233 234 235 236 237 240 242 243 245 246 246 248 250 251 252 253
272 271 265 258 253 247 250 247 245 246 246 245 245 245 240 238 240 240 241 239 238 238 238 237 236 235 235 234 234 235 236 237 238 240 242 244 246 248 248 248 249 251 253 254
283 277 266 259 253 247 252 250 247 247 250 248 246 247 243 239 240 241 242 242 240 239 239 238 237 236 236 236 235 235 236 237 238 240 243 245 246 247 248 249 250 252 253 253
290 281 271 262 253 249 253 252 251 253 253 250 247 248 247 243 243 244 243 243 242 240 239 239 237 236 236 236 236 236 237 238 239 240 242 244 246 247 248 249 250 252 254 254
291 280 272 262 253 253 255 253 254 257 257 255 251 251 250 247 247 247 244 243 243 241 240 239 238 237 238 237 236 235 237 238 239 240 242 244 246 247 247 248 249 251 252 254
291 281 273 263 256 259 255 253 258 261 262 260 255 254 253 250 250 249 248 246 246 243 240 239 238 238 238 237 237 236 238 239 239 240 242 244 246 246 246 248 248 250 251 253
292 286 277 265 266 267 260 259 263 266 265 262 259 257 255 253 253 250 248 249 247 245 242 240 239 238 238 237 237 238 240 241 240 241 243 244 246 247 247 249 249 249 250 251
288 285 279 272 270 269 265 268 269 269 270 264 262 260 257 253 253 250 248 249 248 246 244 241 240 239 239 238 238 239 241 242 242 242 243 244 245 246 247 249 250 250 250 251
290 285 282 277 274 275 274 273 272 273 273 269 267 264 259 256 255 251 250 251 250 247 245 242 242 242 242 240 239 240 242 243 244 244 244 245 245 245 246 247 250 250 250 251
291 289 287 283 282 281 280 276 273 272 275 274 270 267 263 259 256 254 253 251 251 249 247 244 243 244 244 241 241 242 243 244 244 245 245 245 245 245 245 247 249 250 252 253
294 291 290 284 285 284 283 279 275 276 275 275 271 269 266 263 259 257 256 254 251 249 248 246 244 244 244 243 243 244 244 244 245 246 245 246 245 245 246 247 248 250 252 253
299 294 292 290 288 287 284 283 281 279 276 277 275 271 265 262 261 260 258 258 255 252 250 248 246 244 244 245 246 246 245 245 245 246 246 246 245 245 245 247 249 250 252 254
302 298 295 293 291 287 285 281 282 283 280 280 279 274 268 262 262 261 260 260 257 255 252 250 248 245 245 247 247 247 246 245 245 246 246 245 245 245 245 246 249 251 252 255
303 301 297 293 291 289 288 283 281 282 282 282 280 277 272 268 265 263 260 259 257 255 254 252 249 246 246 248 248 247 245 245 246 246 246 245 245 245 246 247 249 251 253 254
305 302 299 296 290 287 289 289 286 285 284 282 280 277 275 272 271 266 262 261 258 255 254 253 251 248 248 248 249 248 247 246 248 248 247 246 246 246 247 249 251 252 254 256
305 303 300 298 293 290 291 290 287 286 285 283 281 278 277 274 274 269 265 262 259 257 255 254 253 251 251 249 249 250 248 248 250 248 248 248 248 248 248 249 251 252 255 257
305 307 306 302 297 293 290 290 287 287 286 284 281 279 277 275 272 270 267 265 263 259 257 256 255 254 253 251 251 250 249 249 251 251 249 250 250 251 250 251 252 253 256 258
304 306 308 307 302 298 297 291 288 288 288 287 283 279 276 274 271 269 266 264 264 265 262 260 258 257 255 252 253 252 252 251 252 252 252 252 251 252 252 252 253 254 256 258
301 302 305 305 303 300 299 295 290 290 290 287 284 281 277 274 272 269 266 265 266 267 267 265 262 260 257 255 255 254 255 254 254 253 254 254 254 254 254 254 255 256 258 260
301 302 303 302 300 301 299 295 291 291 289 287 284 281 278 275 272 271 270 268 268 269 270 268 266 262 259 259 258 257 257 256 256 256 256 256 255 255 255 256 257 258 260 261
300 301 301 301 301 300 298 297 295 292 290 287 284 281 277 275 274 272 270 270 270 270 270 269 267 263 261 262 260 258 257 257 257 257 257 257 257 257 258 258 259 260 260 260
298 299 299 299 299 299 298 296 295 293 292 289 285 281 277 274 274 272 271 271 272 273 272 271 268 263 261 260 260 259 258 257 257 258 258 258 259 260 260 259 260 260 260 260
297 298 300 299 298 298 297 296 295 293 291 289 285 280 277 273 271 271 271 270 272 273 274 273 269 264 261 259 259 259 259 258 258 258 257 258 260 261 260 260 260 261 260 261
296 297 299 301 301 299 297 295 294 292 290 288 285 281 277 273 271 271 270 270 272 274 274 272 270 266 263 262 260 259 259 259 259 258 258 260 261 262 261 261 260 259 260 261
Height
5682 5684 5683 5684 5685 5687 5689 5691 5693 5696 5698 5700 5703 5706 5710 5713 5716 5719 5722 5726 5730 5735 5739 5743 5748 5754 5758 5763 5768 5774 5778 5783 5787 5790 5794 5797 5799 5802 5804 5806 5807 5809 5811 5812
5679 5679 5679 5678 5679 5680 5682 5684 5686 5689 5691 5693 5696 5698 5702 5704 5707 5710 5713 5717 5721 5725 5729 5733 5738 5744 5749 5754 5759 5764 5769 5774 5778 5782 5785 5788 5790 5793 5795 5797 5799 5801 5802 5804
5674 5675 5673 5674 5674 5675 5676 5678 5680 5682 5684 5686 5688 5690 5693 5696 5698 5701 5704 5707 5711 5715 5719 5724 5728 5733 5739 5744 5749 5755 5760 5765 5769 5773 5776 5779 5781 5783 5786 5788 5790 5792 5794 5796
5669 5669 5668 5669 5669 5670 5671 5672 5674 5676 5677 5679 5681 5682 5686 5688 5690 5693 5696 5699 5703 5707 5710 5714 5718 5723 5728 5734 5739 5745 5750 5755 5759 5763 5766 5769 5772 5775 5778 5780 5782 5784 5785 5787
5665 5664 5664 5664 5665 5665 5666 5667 5668 5670 5670 5672 5674 5674 5678 5680 5683 5686 5689 5692 5694 5698 5702 5705 5709 5713 5718 5723 5729 5734 5740 5745 5749 5753 5757 5760 5763 5765 5768 5770 5772 5774 5776 5778
5661 5660 5659 5659 5660 5661 5661 5663 5663 5664 5664 5665 5667 5668 5670 5673 5676 5679 5681 5684 5686 5689 5693 5696 5700 5704 5708 5713 5718 5723 5729 5734 5739 5743 5747 5750 5753 5755 5757 5760 5762 5765 5767 5768
5658 5657 5656 5655 5656 5657 5658 5658 5658 5657 5657 5658 5660 5660 5664 5667 5669 5671 5674 5676 5678 5681 5684 5687 5691 5695 5699 5703 5708 5713 5718 5723 5728 5732 5736 5739 5742 5744 5746 5749 5752 5754 5757 5758
5654 5654 5653 5652 5653 5653 5653 5654 5653 5652 5651 5653 5653 5653 5657 5660 5661 5663 5666 5668 5670 5672 5675 5678 5682 5686 5690 5693 5698 5702 5707 5712 5716 5721 5724 5728 5730 5732 5735 5738 5741 5743 5746 5748
5651 5651 5650 5649 5649 5649 5648 5648 5648 5647 5646 5646 5647 5648 5651 5652 5654 5655 5658 5660 5662 5664 5667 5670 5674 5677 5680 5684 5688 5692 5696 5701 5705 5709 5713 5716 5719 5722 5725 5728 5730 5733 5735 5737
5648 5647 5647 5646 5646 5645 5645 5644 5643 5642 5640 5640 5641 5642 5643 5645 5647 5649 5651 5652 5654 5657 5659 5662 5665 5668 5672 5675 5679 5682 5686 5690 5694 5698 5701 5705 5708 5711 5714 5717 5720 5722 5724 5726
5645 5644 5644 5642 5641 5641 5641 5640 5638 5637 5636 5635 5635 5639 5638 5639 5640 5641 5643 5645 5647 5649 5651 5654 5657 5660 5663 5666 5669 5673 5676 5679 5683 5686 5690 5693 5697 5700 5703 5706 5708 5711 5713 5715
5641 5641 5640 5639 5638 5636 5636 5635 5634 5633 5632 5630 5630 5634 5632 5632 5633 5634 5636 5638 5639 5641 5643 5646 5649 5651 5654 5657 5660 5663 5666 5669 5672 5675 5678 5682 5685 5688 5692 5695 5698 5701 5703 5704
5638 5637 5636 5635 5635 5633 5631 5630 5629 5628 5626 5625 5625 5629 5626 5626 5626 5627 5628 5630 5631 5633 5635 5637 5640 5642 5645 5648 5650 5653 5656 5659 5661 5664 5667 5670 5674 5677 5681 5685 5687 5690 5692 5694
5634 5633 5632 5631 5629 5628 5627 5626 5624 5623 5621 5620 5620 5621 5621 5620 5621 5621 5622 5622 5623 5625 5627 5629 5631 5633 5636 5639 5641 5643 5646 5648 5651 5653 5656 5659 5663 5667 5670 5673 5676 5679 5681 5683
5630 5629 5627 5626 5624 5623 5622 5621 5619 5618 5616 5615 5615 5614 5614 5614 5614 5615 5615 5615 5616 5617 5619 5620 5622 5624 5627 5629 5631 5633 5635 5638 5640 5642 5645 5648 5651 5655 5659 5662 5664 5667 5669 5672
5626 5624 5623 5622 5619 5617 5616 5615 5614 5612 5611 5609 5608 5608 5607 5607 5607 5607 5607 5608 5609 5609 5610 5612 5613 5615 5617 5619 5621 5623 5625 5627 5630 5632 5634 5637 5640 5644 5647 5650 5653 5655 5657 5660
5622 5620 5618 5616 5614 5612 5611 5610 5608 5607 5605 5604 5602 5603 5601 5601 5601 5600 5600 5601 5601 5601 5602 5603 5605 5606 5608 5610 5612 5613 5615 5617 5620 5622 5624 5626 5629 5633 5636 5639 5641 5644 5646 5648
5618 5615 5612 5610 5609 5607 5608 5604 5602 5601 5599 5598 5597 5596 5595 5594 5594 5593 5593 5594 5594 5594 5594 5595 5596 5598 5600 5601 5602 5604 5606 5608 5610 5612 5614 5616 5619 5622 5624 5627 5629 5632 5634 5636
5613 5610 5607 5604 5602 5601 5601 5598 5596 5595 5594 5592 5591 5590 5588 5587 5587 5587 5587 5586 5586 5587 5587 5588 5588 5589 5590 5592 5593 5595 5596 5598 5600 5602 5603 5605 5608 5610 5613 5615 5618 5620 5622 5624
5607 5605 5603 5599 5596 5595 5596 5593 5590 5589 5588 5587 5584 5583 5582 5581 5581 5582 5580 5580 5580 5579 5580 5580 5580 5581 5582 5583 5584 5585 5587 5588 5590 5591 5593 5594 5596 5599 5601 5603 5606 5608 5610 5612
5602 5600 5597 5594 5591 5590 5589 5586 5584 5584 5583 5580 5577 5576 5575 5574 5574 5574 5573 5572 5572 5572 5572 5572 5572 5573 5573 5574 5575 5576 5577 5579 5580 5581 5582 5584 5586 5588 5590 5592 5594 5596 5598 5600
5597 5594 5592 5589 5586 5587 5582 5579 5578 5576 5574 5572 5570 5569 5567 5567 5566 5566 5565 5565 5564 5564 5564 5564 5564 5564 5564 5565 5566 5567 5568 5569 5570 5571 5573 5574 5575 5577 5578 5580 5582 5584 5585 5587
5591 5589 5586 5584 5583 5579 5575 5573 5570 5568 5566 5564 5562 5561 5560 5559 5558 5558 5558 5557 5557 5556 5556 5555 5555 5555 5556 5556 5557 5557 5558 5559 5560 5562 5563 5564 5565 5566 5568 5569 5570 5572 5573 5574
5584 5582 5579 5577 5575 5572 5569 5566 5563 5561 5559 5557 5555 5554 5552 5552 5551 5550 5550 5549 5548 5548 5547 5547 5547 5547 5547 5547 5548 5548 5548 5549 5550 5551 5552 5554 5555 5556 5556 5557 5559 5560 5561 5562
5578 5575 5572 5570 5568 5565 5562 5559 5556 5554 5552 5549 5547 5546 5545 5544 5543 5542 5542 5541 5540 5540 5539 5538 5538 5538 5538 5538 5538 5538 5539 5539 5540 5541 5542 5543 5544 5545 5545 5546 5547 5548 5549 5550
5571 5569 5566 5563 5560 5557 5554 5551 5548 5546 5544 5542 5540 5539 5537 5536 5535 5534 5534 5533 5532 5531 5530 5530 5529 5529 5529 5529 5528 5528 5529 5529 5530 5531 5532 5533 5534 5534 5535 5535 5536 5537 5538 5538